Regional Weather Roundup
Issued by NWS

Home | Current Version | Previous Version | Graphics & Text | Print | Product List | Glossary On
Versions: 1 2 3 4 5 6 7 8 9 10 11 12 13 14 15 16 17 18 19 20 21 22 23 24 25 26 27 28 29 30 31 32 33 34 35 36 37 38 39 40 41 42 43 44 45 46 47 48 49 50
000
ASUS43 KLMK 022310
RWRKY
KENTUCKY REGIONAL WEATHER ROUNDUP
NATIONAL WEATHER SERVICE LOUISVILLE KY
700 PM EDT MON MAY 02 2016

NOTE "FAIR" INDICATES FEW OR NO CLOUDS BELOW 12,000 FEET
WITH NO SIGNIFICANT WEATHER AND/OR OBSTRUCTIONS TO VISIBILITY.

KYZ001>023-026-027-061>063-070>075-030000-
WESTERN AND SOUTH CENTRAL KENTUCKY

CITY           SKY/WX    TMP DP  RH WIND       PRES   REMARKS
PADUCAH        CLOUDY    64  50  60 NW9       29.95S
HENDERSON      CLOUDY    61  48  63 NW10      29.95S
OWENSBORO      CLOUDY    63  52  67 NW10      29.96R
HOPKINSVILLE   CLOUDY    61  56  82 SW2       29.93F
BOWLING GREEN  CLOUDY    62  56  80 NW3       29.94S
GLASGOW        CLOUDY    59  59 100 CALM      29.95S
$$

KYZ024-025-028>034-038-045-046-053-030000-
NORTH CENTRAL KENTUCKY

CITY           SKY/WX    TMP DP  RH WIND       PRES   REMARKS
LOUISVILLE/SDF CLOUDY    64  50  60 NW8       29.93R
LOUISVILLE/LOU CLOUDY    64  51  62 N6        29.94R
FORT KNOX      CLOUDY    62  52  70 NW5       29.92R
$$

KYZ035>037-039>044-047>052-055>060-089>105-030000-
NORTHEAST KENTUCKY

CITY           SKY/WX    TMP DP  RH WIND       PRES   REMARKS
LEXINGTON      CLOUDY    63  57  81 SW5       29.93F
COVINGTON      CLOUDY    62  52  69 NW10      29.92S
FRANKFORT      PTSUNNY   64  51  62 NW6       29.92S
$$

KYZ054-064>069-076>088-106>120-030000-
SOUTHEAST KENTUCKY

CITY           SKY/WX    TMP DP  RH WIND       PRES   REMARKS
JACKSON        FOG       59  57  93 CALM      29.92F VSB 3/4
LONDON         LGT RAIN  60  59  96 SW5       29.94R FOG
SOMERSET       CLOUDY    59  59 100 S3        29.95R
MIDDLESBORO    LGT RAIN  60  59  96 NW5       29.95F
MONTICELLO     MOCLDY    62  60  93 E8        29.96S
$$





USA.gov is the U.S. government's official web portal to all federal, state and local government web resources and services.